DLH5EJ EDDH-EDDF

Flight info

Callsign DLH5EJ
Flight time N/A
Altitude 30000
Route AMLUH2G AMLUH M852 DENIX DCT RIMET/N0494F310 T157 KOKEB/N0449F230 T157 KERAX KERAX5D
Aircraft B789/H-SDE1E2E3FGHIJ2J3J4J5M1RWXY/LB1D1

Departure

Time 2026-04-22 20:04
Airport Hamburg Helmut Schmidt Airport (EDDH)

Arrival

Time N/A
Airport Frankfurt Main Airport (EDDF)
Time Latitude Longitude Altitude Speed Heading
2026-04-22 19:47 53.62800 9.99367 52 ft 0 kts 242°
2026-04-22 19:56 53.62803 9.99378 46 ft 4 kts 245°
2026-04-22 19:56 53.62812 9.99420 50 ft 4 kts 262°
2026-04-22 19:56 53.62812 9.99464 49 ft 4 kts 292°
2026-04-22 19:56 53.62798 9.99495 45 ft 2 kts 332°
2026-04-22 19:57 53.62797 9.99496 45 ft 0 kts 333°
2026-04-22 20:00 53.63034 9.99306 48 ft 8 kts
2026-04-22 20:00 53.63071 9.99344 49 ft 0 kts 48°
2026-04-22 20:02 53.63078 9.99358 51 ft 5 kts 50°
2026-04-22 20:02 53.63108 9.99426 46 ft 10 kts 54°
2026-04-22 20:03 53.63168 9.99475 47 ft 10 kts 350°
2026-04-22 20:03 53.63191 9.99460 47 ft 3 kts 336°
2026-04-22 20:03 53.63389 9.99294 49 ft 66 kts 333°
2026-04-22 20:03 53.64013 9.98756 49 ft 133 kts 333°
2026-04-22 20:04 53.64949 9.97949 386 ft 156 kts 334°
2026-04-22 20:04 53.65987 9.97114 922 ft 177 kts 332°
2026-04-22 20:04 53.67084 9.96128 1755 ft 179 kts 330°
2026-04-22 20:04 53.68257 9.95113 2393 ft 201 kts 333°
2026-04-22 20:05 53.69624 9.94709 3315 ft 203 kts
2026-04-22 20:05 53.71037 9.94888 4262 ft 206 kts 356°
2026-04-22 20:05 53.72471 9.95073 5105 ft 214 kts 24°
2026-04-22 20:05 53.73615 9.96642 6093 ft 216 kts 46°
2026-04-22 20:06 53.74174 9.99022 6985 ft 226 kts 80°
2026-04-22 20:06 53.74300 10.01690 7865 ft 229 kts 84°
2026-04-22 20:06 53.73973 10.04369 8606 ft 245 kts 112°
2026-04-22 20:06 53.73118 10.06994 8984 ft 272 kts 116°
2026-04-22 20:07 53.72123 10.09862 9544 ft 289 kts 117°
2026-04-22 20:08 53.70998 10.13169 9966 ft 306 kts 116°
2026-04-22 20:08 53.70318 10.15218 9997 ft 298 kts 116°
2026-04-22 20:08 53.69240 10.18332 10051 ft 322 kts 124°
2026-04-22 20:09 53.67448 10.20842 10264 ft 355 kts 152°
2026-04-22 20:09 53.65064 10.22229 10831 ft 366 kts 163°
2026-04-22 20:09 53.62589 10.23293 11713 ft 368 kts 165°
2026-04-22 20:09 53.60084 10.24352 12500 ft 372 kts 163°
2026-04-22 20:10 53.57583 10.25517 13304 ft 375 kts 162°
2026-04-22 20:10 53.55059 10.26715 14085 ft 378 kts 162°
2026-04-22 20:10 53.52507 10.27882 14773 ft 382 kts 163°
2026-04-22 20:10 53.49932 10.29040 15450 ft 385 kts 163°
2026-04-22 20:11 53.47328 10.30226 16125 ft 388 kts 163°
2026-04-22 20:11 53.44711 10.31427 16773 ft 392 kts 163°
2026-04-22 20:11 53.42067 10.32632 17405 ft 395 kts 163°
2026-04-22 20:11 53.39398 10.33833 18026 ft 399 kts 163°
2026-04-22 20:12 53.36738 10.35024 18621 ft 402 kts 163°
2026-04-22 20:12 53.34033 10.36239 19147 ft 404 kts 163°
2026-04-22 20:12 53.31316 10.37462 19696 ft 406 kts 163°
2026-04-22 20:12 53.28606 10.38676 20216 ft 408 kts 163°
2026-04-22 20:13 53.25848 10.39910 20731 ft 410 kts 163°
2026-04-22 20:13 53.23083 10.41146 21227 ft 412 kts 163°
2026-04-22 20:13 53.20310 10.42383 21705 ft 414 kts 163°
2026-04-22 20:13 53.17508 10.43635 22174 ft 416 kts 163°
2026-04-22 20:14 53.14700 10.44879 22623 ft 418 kts 165°
2026-04-22 20:14 53.11812 10.45517 23016 ft 423 kts 178°
2026-04-22 20:14 53.08883 10.45007 23440 ft 426 kts 189°
2026-04-22 20:14 53.05987 10.44083 23783 ft 429 kts 189°
2026-04-22 20:15 53.03064 10.43088 24146 ft 430 kts 189°
2026-04-22 20:15 53.00127 10.42084 24548 ft 430 kts 189°
2026-04-22 20:15 52.97205 10.41121 24983 ft 428 kts 188°
2026-04-22 20:15 52.94286 10.40169 25391 ft 427 kts 188°
2026-04-22 20:16 52.91370 10.39203 25832 ft 426 kts 188°
2026-04-22 20:16 52.88471 10.38238 26274 ft 425 kts 187°
2026-04-22 20:16 52.85580 10.37284 26728 ft 423 kts 187°
2026-04-22 20:16 52.82687 10.36334 27201 ft 422 kts 186°
2026-04-22 20:17 52.79808 10.35388 27687 ft 421 kts 186°
2026-04-22 20:17 52.76941 10.34444 28181 ft 419 kts 186°
2026-04-22 20:17 52.74092 10.33508 28690 ft 418 kts 185°
2026-04-22 20:17 52.71240 10.32575 29238 ft 416 kts 185°
2026-04-22 20:18 52.68402 10.31646 29779 ft 415 kts 185°
2026-04-22 20:18 52.65575 10.30722 30302 ft 414 kts 184°
2026-04-22 20:18 52.62714 10.29794 30342 ft 421 kts 185°
2026-04-22 20:19 52.57013 10.27928 30344 ft 414 kts 185°
2026-04-22 20:19 52.51398 10.26111 30330 ft 414 kts 185°
2026-04-22 20:20 52.45712 10.24265 30329 ft 413 kts 185°
2026-04-22 20:20 52.40111 10.22456 30318 ft 414 kts 185°
2026-04-22 20:21 52.34463 10.20636 30322 ft 414 kts 185°
2026-04-22 20:21 52.28806 10.18817 30321 ft 414 kts 185°
2026-04-22 20:22 52.23150 10.17003 30334 ft 414 kts 185°
2026-04-22 20:22 52.17487 10.15192 30342 ft 415 kts 185°
2026-04-22 20:23 52.11814 10.13382 30343 ft 415 kts 185°
2026-04-22 20:23 52.06131 10.11574 30356 ft 415 kts 185°
2026-04-22 20:24 52.00457 10.09773 30353 ft 415 kts 185°
2026-04-22 20:24 51.94791 10.07980 30360 ft 414 kts 185°
2026-04-22 20:25 51.89162 10.06203 30361 ft 414 kts 185°
2026-04-22 20:25 51.83610 10.04446 30214 ft 396 kts 185°
2026-04-22 20:25 51.80905 10.03601 29189 ft 401 kts 186°
2026-04-22 20:26 51.78143 10.02742 28791 ft 397 kts 186°
2026-04-22 20:26 51.75457 10.01891 28236 ft 394 kts 186°